Time[GMT],gps_lon[degrees_west](-3m),gps_2_lat[degrees_north](-3m),gps_2_lon[degrees_west](-3m),gps_lat[degrees_north](-3m)
2006-04-10 14:00,-70.427581787,43.15,-70.43,43.18
2006-04-10 15:00,-70.427551270,43.18,-70.43,43.18
2006-04-10 16:00,-70.427581787,43.18,-70.43,43.18
2006-04-10 17:00,-70.427551270,43.18,-70.43,43.18
2006-04-10 18:00,-70.427566528,43.18,-70.43,43.18
2006-04-10 19:00,-70.427551270,43.18,-70.43,43.18
2006-04-10 20:00,-70.427551270,43.18,-70.43,43.18
2006-04-10 21:00,-70.427551270,43.18,-70.43,43.18
2006-04-10 22:00,-70.427536011,43.18,-70.43,43.18
2006-04-10 23:00,-70.427513123,43.18,-70.43,43.18
2006-04-11 00:00,-70.427467346,43.18,-70.43,43.18
2006-04-11 01:00,-70.427452087,43.18,-70.43,43.18
2006-04-11 02:00,-70.427383423,43.18,-70.43,43.18
2006-04-11 03:00,-70.427436829,43.18,-70.43,43.18
2006-04-11 04:00,-70.427467346,43.18,-70.43,43.18
2006-04-11 05:00,-70.427482605,43.18,-70.43,43.18
2006-04-11 06:00,-70.427482605,43.18,-70.43,43.18
2006-04-11 07:00,-70.427497864,43.18,-70.43,43.18
2006-04-11 08:00,-70.427536011,43.18,-70.43,43.18
2006-04-11 09:00,-70.427597046,43.18,-70.43,43.18
2006-04-11 10:00,-70.427566528,43.18,-70.43,43.18
2006-04-11 11:00,-70.427619934,43.18,-70.43,43.18
2006-04-11 12:00,-70.427619934,43.18,-70.43,43.18
2006-04-11 13:00,-70.427619934,43.18,-70.43,43.18
2006-04-11 14:00,-70.427597046,43.18,-70.43,43.18
2006-04-11 15:00,-70.427581787,43.18,-70.43,43.18
2006-04-11 16:00,-70.427513123,43.18,-70.43,43.18
2006-04-11 17:00,-70.427513123,43.18,-70.43,43.18
2006-04-11 18:00,-70.427497864,43.18,-70.43,43.18
2006-04-11 19:00,-70.427513123,43.18,-70.43,43.18
2006-04-11 20:00,-70.427497864,43.18,-70.43,43.18
2006-04-11 21:00,-70.427467346,43.18,-70.43,43.18
2006-04-11 22:00,-70.427513123,43.18,-70.43,43.18
2006-04-11 23:00,-70.427482605,43.18,-70.43,43.18
2006-04-12 00:00,-70.427551270,43.18,-70.43,43.18
2006-04-12 01:00,-70.427566528,43.18,-70.43,43.18
2006-04-12 02:00,-70.427566528,43.18,-70.43,43.18
2006-04-12 03:00,-70.427566528,43.18,-70.43,43.18
2006-04-12 04:00,-70.427597046,43.18,-70.43,43.18
2006-04-12 05:00,-70.427597046,43.18,-70.43,43.18
2006-04-12 06:00,-70.427619934,43.18,-70.43,43.18
2006-04-12 07:00,-70.427597046,43.18,-70.43,43.18
2006-04-12 08:00,-70.427650452,43.18,-70.43,43.18
2006-04-12 09:00,-70.427680969,43.18,-70.43,43.18
2006-04-12 10:00,-70.427680969,43.18,-70.43,43.18
2006-04-12 11:00,-70.427680969,43.18,-70.43,43.18
2006-04-12 12:00,-70.427665710,43.18,-70.43,43.18
2006-04-12 13:00,-70.427635193,43.18,-70.43,43.18
2006-04-12 14:00,-70.427619934,43.18,-70.43,43.18
2006-04-12 15:00,-70.427566528,43.18,-70.43,43.18
2006-04-12 16:00,-70.427619934,43.18,-70.43,43.18
2006-04-12 17:00,-70.427581787,43.18,-70.43,43.18
2006-04-12 18:00,-70.427635193,43.18,-70.43,43.18
2006-04-12 19:00,-70.427650452,43.18,-70.43,43.18
2006-04-12 20:00,-70.427665710,43.18,-70.43,43.18
2006-04-12 21:00,-70.427665710,43.18,-70.43,43.18
2006-04-12 22:00,-70.427696228,43.18,-70.43,43.18
2006-04-12 23:00,-70.427680969,43.18,-70.43,43.18
2006-04-13 00:00,-70.427665710,43.18,-70.43,43.18
2006-04-13 01:00,-70.427696228,43.18,-70.43,43.18
2006-04-13 02:00,-70.427650452,43.18,-70.43,43.18
2006-04-13 03:00,-70.427635193,43.18,-70.43,43.18
2006-04-13 04:00,-70.427619934,43.18,-70.43,43.18
2006-04-13 05:00,-70.427581787,43.18,-70.43,43.18
2006-04-13 06:00,-70.427536011,43.18,-70.43,43.18
2006-04-13 07:00,-70.427536011,43.18,-70.43,43.18
2006-04-13 08:00,-70.427566528,43.18,-70.43,43.18
2006-04-13 09:00,-70.427619934,43.18,-70.43,43.18
2006-04-13 10:00,-70.427581787,43.18,-70.43,43.18
2006-04-13 11:00,-70.427665710,43.18,-70.43,43.18
2006-04-13 12:00,-70.427680969,43.18,-70.43,43.18
2006-04-13 13:00,-70.427665710,43.18,-70.43,43.18
2006-04-13 14:00,-70.427680969,43.18,-70.43,43.18
2006-04-13 15:00,-70.427635193,43.18,-70.43,43.18
2006-04-13 16:00,-70.427619934,43.18,-70.43,43.18
2006-04-13 17:00,-70.427635193,43.18,-70.43,43.18
2006-04-13 18:00,-70.427597046,43.18,-70.43,43.18
2006-04-13 19:00,-70.427581787,43.18,-70.43,43.18
2006-04-13 20:00,-70.427581787,43.18,-70.43,43.18
2006-04-13 21:00,-70.427566528,43.18,-70.43,43.18
2006-04-13 22:00,-70.427619934,43.18,-70.43,43.18
2006-04-13 23:00,-70.427597046,43.18,-70.43,43.18
2006-04-14 00:00,-70.427566528,43.18,-70.43,43.18
2006-04-14 01:00,-70.427650452,43.18,-70.43,43.18
2006-04-14 02:00,-70.427635193,43.18,-70.43,43.18
2006-04-14 03:00,-70.427513123,43.18,-70.43,43.18
2006-04-14 04:00,-70.427551270,43.18,-70.43,43.18
2006-04-14 05:00,-70.427551270,43.18,-70.43,43.18
2006-04-14 06:00,-70.427635193,43.18,-70.43,43.18
2006-04-14 07:00,-70.427650452,43.18,-70.43,43.18
2006-04-14 08:00,-70.427696228,43.18,-70.43,43.18
2006-04-14 09:00,-70.427665710,43.18,-70.43,43.18
2006-04-14 10:00,-70.427650452,43.18,-70.43,43.18
2006-04-14 11:00,-70.427665710,43.18,-70.43,43.18
2006-04-14 12:00,-70.427680969,43.18,-70.43,43.18
2006-04-14 13:00,-70.427650452,43.18,-70.43,43.18
2006-04-14 14:00,-70.427619934,43.18,-70.43,43.18
2006-04-14 15:00,-70.427619934,43.18,-70.43,43.18
2006-04-14 16:00,-70.427635193,43.18,-70.43,43.18
2006-04-14 17:00,-70.427635193,43.18,-70.43,43.18
2006-04-14 18:00,-70.427597046,43.18,-70.43,43.18
2006-04-14 19:00,-70.427619934,43.18,-70.43,43.18
2006-04-14 20:00,-70.427536011,43.18,-70.43,43.18
2006-04-14 21:00,-70.427597046,43.18,-70.43,43.18
2006-04-14 22:00,-70.427581787,43.18,-70.43,43.18
2006-04-14 23:00,-70.427635193,43.18,-70.43,43.18
2006-04-15 00:00,-70.427619934,43.18,-70.43,43.18
2006-04-15 01:00,-70.427665710,43.18,-70.43,43.18
2006-04-15 02:00,-70.427680969,43.18,-70.43,43.18
2006-04-15 03:00,-70.427650452,43.18,-70.43,43.18
2006-04-15 04:00,-70.427665710,43.18,-70.43,43.18
2006-04-15 05:00,-70.427635193,43.18,-70.43,43.18
2006-04-15 06:00,-70.427619934,43.18,-70.43,43.18
2006-04-15 07:00,-70.427635193,43.18,-70.43,43.18
2006-04-15 08:00,-70.427680969,43.18,-70.43,43.18
2006-04-15 09:00,-70.427650452,43.18,-70.43,43.18
2006-04-15 10:00,-70.427650452,43.18,-70.43,43.18
2006-04-15 11:00,-70.427680969,43.18,-70.43,43.18
2006-04-15 12:00,-70.427665710,43.18,-70.43,43.18
2006-04-15 13:00,-70.427680969,43.18,-70.43,43.18
2006-04-15 14:00,-70.427635193,43.18,-70.43,43.18
2006-04-15 15:00,-70.427650452,43.18,-70.43,43.18
2006-04-15 16:00,-70.427635193,43.18,-70.43,43.18
2006-04-15 17:00,-70.427597046,43.18,-70.43,43.18
2006-04-15 18:00,-70.427635193,43.18,-70.43,43.18
2006-04-15 19:00,-70.427635193,43.18,-70.43,43.18
2006-04-15 20:00,-70.427581787,43.18,-70.43,43.18
2006-04-15 21:00,-70.427551270,43.18,-70.43,43.18
2006-04-15 22:00,-70.427581787,43.18,-70.43,43.18
2006-04-15 23:00,-70.427619934,43.18,-70.43,43.18
2006-04-16 00:00,-70.427635193,43.18,-70.43,43.18
2006-04-16 01:00,-70.427665710,43.18,-70.43,43.18
2006-04-16 02:00,-70.427650452,43.18,-70.43,43.18
2006-04-16 03:00,-70.427680969,43.18,-70.43,43.18
2006-04-16 04:00,-70.427619934,43.18,-70.43,43.18
2006-04-16 05:00,-70.427635193,43.18,-70.43,43.18
2006-04-16 06:00,-70.427650452,43.18,-70.43,43.18
2006-04-16 07:00,-70.427597046,43.18,-70.43,43.18
2006-04-16 08:00,-70.427513123,43.18,-70.43,43.18
2006-04-16 09:00,-70.427452087,43.18,-70.43,43.18
2006-04-16 10:00,-70.427497864,43.18,-70.43,43.18
2006-04-16 11:00,-70.427413940,43.18,-70.43,43.18
2006-04-16 12:00,-70.427452087,43.18,-70.43,43.18
2006-04-16 13:00,-70.427467346,43.18,-70.43,43.18
2006-04-16 14:00,-70.427513123,43.18,-70.43,43.18
2006-04-16 15:00,-70.427513123,43.18,-70.43,43.18
2006-04-16 16:00,-70.427536011,43.18,-70.43,43.18
2006-04-16 17:00,-70.427413940,43.18,-70.43,43.18
2006-04-16 18:00,-70.427436829,43.18,-70.43,43.18
2006-04-16 19:00,-70.427436829,43.18,-70.43,43.18
2006-04-16 20:00,-70.427352905,43.18,-70.43,43.18
2006-04-16 21:00,-70.427482605,43.18,-70.43,43.18
2006-04-16 22:00,-70.427551270,43.18,-70.43,43.18
2006-04-16 23:00,-70.427597046,43.18,-70.43,43.18
2006-04-17 00:00,-70.427696228,43.18,-70.43,43.18
2006-04-17 01:00,-70.427665710,43.18,-70.43,43.18
2006-04-17 02:00,-70.427680969,43.18,-70.43,43.18
2006-04-17 03:00,-70.427665710,43.18,-70.43,43.18
2006-04-17 04:00,-70.427566528,43.18,-70.43,43.18
2006-04-17 05:00,-70.427566528,43.18,-70.43,43.18
2006-04-17 06:00,-70.427513123,43.18,-70.43,43.18
2006-04-17 07:00,-70.427482605,43.18,-70.43,43.18
2006-04-17 08:00,-70.427452087,43.18,-70.43,43.18
2006-04-17 09:00,-70.427452087,43.18,-70.43,43.18
2006-04-17 10:00,-70.427497864,43.18,-70.43,43.18
2006-04-17 11:00,-70.427597046,43.18,-70.43,43.18
2006-04-17 12:00,-70.427650452,43.18,-70.43,43.18
2006-04-17 13:00,-70.427696228,43.18,-70.43,43.18
2006-04-17 14:00,-70.427749634,43.18,-70.43,43.18
2006-04-17 15:00,-70.427764893,43.18,-70.43,43.18
2006-04-17 16:00,-70.427818298,43.18,-70.43,43.18
2006-04-17 17:00,-70.427749634,43.18,-70.43,43.18
2006-04-17 18:00,-70.427719116,43.18,-70.43,43.18
2006-04-17 19:00,-70.427650452,43.18,-70.43,43.18
2006-04-17 20:00,-70.427581787,43.18,-70.43,43.18
2006-04-17 21:00,-70.427650452,43.18,-70.43,43.18
2006-04-17 22:00,-70.427635193,43.18,-70.43,43.18
2006-04-17 23:00,-70.427551270,43.18,-70.43,43.18
2006-04-18 00:00,-70.427551270,43.18,-70.43,43.18
2006-04-18 01:00,-70.427566528,43.18,-70.43,43.18
2006-04-18 02:00,-70.427581787,43.18,-70.43,43.18
2006-04-18 03:00,-70.427680969,43.18,-70.43,43.18
2006-04-18 04:00,-70.427749634,43.18,-70.43,43.18
2006-04-18 05:00,-70.427780151,43.18,-70.43,43.18
2006-04-18 06:00,-70.427803040,43.18,-70.43,43.18
2006-04-18 07:00,-70.427848816,43.18,-70.43,43.18
2006-04-18 08:00,-70.427803040,43.18,-70.43,43.18
2006-04-18 09:00,-70.427749634,43.18,-70.43,43.18
2006-04-18 10:00,-70.427680969,43.18,-70.43,43.18
2006-04-18 11:00,-70.427635193,43.18,-70.43,43.18
2006-04-18 12:00,-70.427680969,43.18,-70.43,43.18
2006-04-18 13:00,-70.427635193,43.18,-70.43,43.18
2006-04-18 14:00,-70.427680969,43.18,-70.43,43.18
2006-04-18 15:00,-70.427719116,43.18,-70.43,43.18
2006-04-18 16:00,-70.427734375,43.18,-70.43,43.18
2006-04-18 17:00,-70.427680969,43.18,-70.43,43.18
2006-04-18 18:00,-70.427764893,43.18,-70.43,43.18
2006-04-18 19:00,-70.427803040,43.18,-70.43,43.18
2006-04-18 20:00,-70.427696228,43.18,-70.43,43.18
2006-04-18 21:00,-70.427665710,43.18,-70.43,43.18
2006-04-18 22:00,-70.427719116,43.18,-70.43,43.18
2006-04-18 23:00,-70.427719116,43.18,-70.43,43.18
2006-04-19 00:00,-70.427719116,43.18,-70.43,43.18
2006-04-19 01:00,-70.427734375,43.18,-70.43,43.18
2006-04-19 02:00,-70.427749634,43.18,-70.43,43.18
2006-04-19 03:00,-70.427803040,43.18,-70.43,43.18
2006-04-19 04:00,-70.427803040,43.18,-70.43,43.18
2006-04-19 05:00,-70.427780151,43.18,-70.43,43.18
2006-04-19 06:00,-70.427749634,43.18,-70.43,43.18
2006-04-19 07:00,-70.427734375,43.18,-70.43,43.18
2006-04-19 08:00,-70.427734375,43.18,-70.43,43.18
2006-04-19 09:00,-70.427696228,43.18,-70.43,43.18
2006-04-19 10:00,-70.427665710,43.18,-70.43,43.18
2006-04-19 11:00,-70.427619934,43.18,-70.43,43.18
2006-04-19 12:00,-70.427650452,43.18,-70.43,43.18
2006-04-19 13:00,-70.427650452,43.18,-70.43,43.18
2006-04-19 14:00,-70.427619934,43.18,-70.43,43.18
2006-04-19 15:00,-70.427650452,43.18,-70.43,43.18
2006-04-19 16:00,-70.427680969,43.18,-70.43,43.18
2006-04-19 17:00,-70.427696228,43.18,-70.43,43.18
2006-04-19 18:00,-70.427734375,43.18,-70.43,43.18
2006-04-19 19:00,-70.427597046,43.18,-70.43,43.18
2006-04-19 20:00,-70.427619934,43.18,-70.43,43.18
2006-04-19 21:00,-70.427581787,43.18,-70.43,43.18
2006-04-19 22:00,-70.427581787,43.18,-70.43,43.18
2006-04-19 23:00,-70.427566528,43.18,-70.43,43.18
2006-04-20 00:00,-70.427581787,43.18,-70.43,43.18
2006-04-20 01:00,-70.427619934,43.18,-70.43,43.18
2006-04-20 02:00,-70.427650452,43.18,-70.43,43.18
2006-04-20 03:00,-70.427719116,43.18,-70.43,43.18
2006-04-20 04:00,-70.427734375,43.18,-70.43,43.18
2006-04-20 05:00,-70.427749634,43.18,-70.43,43.18
2006-04-20 06:00,-70.427749634,43.18,-70.43,43.18
2006-04-20 07:00,-70.427734375,43.18,-70.43,43.18
2006-04-20 08:00,-70.427665710,43.18,-70.43,43.18
2006-04-20 09:00,-70.427619934,43.18,-70.43,43.18
2006-04-20 10:00,-70.427619934,43.18,-70.43,43.18
2006-04-20 11:00,-70.427619934,43.18,-70.43,43.18
2006-04-20 12:00,-70.427635193,43.18,-70.43,43.18
2006-04-20 13:00,-70.427619934,43.18,-70.43,43.18
2006-04-20 14:00,-70.427650452,43.18,-70.43,43.18
2006-04-20 15:00,-70.427734375,43.18,-70.43,43.18
2006-04-20 16:00,-70.427749634,43.18,-70.43,43.18
2006-04-20 17:00,-70.427764893,43.18,-70.43,43.18
2006-04-20 18:00,-70.427749634,43.18,-70.43,43.18
2006-04-20 19:00,-70.427780151,43.18,-70.43,43.18
2006-04-20 20:00,-70.427734375,43.18,-70.43,43.18
2006-04-20 21:00,-70.427719116,43.18,-70.43,43.18
2006-04-20 22:00,-70.427696228,43.18,-70.43,43.18
2006-04-20 23:00,-70.427650452,43.18,-70.43,43.18
2006-04-21 00:00,-70.427650452,43.18,-70.43,43.18
2006-04-21 01:00,-70.427635193,43.18,-70.43,43.18
2006-04-21 02:00,-70.427696228,43.18,-70.43,43.18
2006-04-21 03:00,-70.427719116,43.18,-70.43,43.18
2006-04-21 04:00,-70.427734375,43.18,-70.43,43.18
2006-04-21 05:00,-70.427803040,43.18,-70.43,43.18
2006-04-21 06:00,-70.427818298,43.18,-70.43,43.18
2006-04-21 07:00,-70.427864075,43.18,-70.43,43.18
2006-04-21 08:00,-70.427833557,43.18,-70.43,43.18
2006-04-21 09:00,-70.427818298,43.18,-70.43,43.18
2006-04-21 10:00,-70.427764893,43.18,-70.43,43.18
2006-04-21 11:00,-70.427803040,43.18,-70.43,43.18
2006-04-21 12:00,-70.427833557,43.18,-70.43,43.18
2006-04-21 13:00,-70.427833557,43.18,-70.43,43.18
2006-04-21 14:00,-70.427818298,43.18,-70.43,43.18
2006-04-21 15:00,-70.427803040,43.18,-70.43,43.18
2006-04-21 16:00,-70.427833557,43.18,-70.43,43.18
2006-04-21 17:00,-70.427780151,43.18,-70.43,43.18
2006-04-21 18:00,-70.427818298,43.18,-70.43,43.18
2006-04-21 19:00,-70.427803040,43.18,-70.43,43.18
2006-04-21 20:00,-70.427734375,43.18,-70.43,43.18
2006-04-21 21:00,-70.427650452,43.18,-70.43,43.18
2006-04-21 22:00,-70.427566528,43.18,-70.43,43.18
2006-04-21 23:00,-70.427452087,43.18,-70.43,43.18
2006-04-22 00:00,-70.427467346,43.18,-70.43,43.18
2006-04-22 01:00,-70.427482605,43.18,-70.43,43.18
2006-04-22 02:00,-70.427497864,43.18,-70.43,43.18
2006-04-22 03:00,-70.427635193,43.18,-70.43,43.18
2006-04-22 04:00,-70.427680969,43.18,-70.43,43.18
2006-04-22 05:00,-70.427749634,43.18,-70.43,43.18
2006-04-22 06:00,-70.427749634,43.18,-70.43,43.18
2006-04-22 07:00,-70.427803040,43.18,-70.43,43.18
2006-04-22 08:00,-70.427780151,43.18,-70.43,43.18
2006-04-22 09:00,-70.427764893,43.18,-70.43,43.18
2006-04-22 10:00,-70.427734375,43.18,-70.43,43.18
2006-04-22 11:00,-70.427764893,43.18,-70.43,43.18
2006-04-22 12:00,-70.427734375,43.18,-70.43,43.18
2006-04-22 13:00,-70.427734375,43.18,-70.43,43.18
2006-04-22 14:00,-70.427719116,43.18,-70.43,43.18
2006-04-22 15:00,-70.427734375,43.18,-70.43,43.18
2006-04-22 16:00,-70.427719116,43.18,-70.43,43.18
2006-04-22 17:00,-70.427749634,43.18,-70.43,43.18
2006-04-22 18:00,-70.427749634,43.18,-70.43,43.18
2006-04-22 19:00,-70.427764893,43.18,-70.43,43.18
2006-04-22 20:00,-70.427764893,43.18,-70.43,43.18
2006-04-22 21:00,-70.427803040,43.18,-70.43,43.18
2006-04-22 22:00,-70.427764893,43.18,-70.43,43.18
2006-04-22 23:00,-70.427764893,43.18,-70.43,43.18
2006-04-23 00:00,-70.427734375,43.18,-70.43,43.18
2006-04-23 01:00,-70.427734375,43.18,-70.43,43.18
2006-04-23 02:00,-70.427680969,43.18,-70.43,43.18
2006-04-23 03:00,-70.427597046,43.18,-70.43,43.18
2006-04-23 04:00,-70.427619934,43.18,-70.43,43.18
2006-04-23 05:00,-70.427650452,43.18,-70.43,43.18
2006-04-23 06:00,-70.427719116,43.18,-70.43,43.18
2006-04-23 07:00,-70.427696228,43.18,-70.43,43.18
2006-04-23 08:00,-70.427734375,43.18,-70.43,43.18
2006-04-23 09:00,-70.427719116,43.18,-70.43,43.18
2006-04-23 10:00,-70.427719116,43.18,-70.43,43.18
2006-04-23 11:00,-70.427680969,43.18,-70.43,43.18
2006-04-23 12:00,-70.427635193,43.18,-70.43,43.18
2006-04-23 13:00,-70.427635193,43.18,-70.43,43.18
2006-04-23 14:00,-70.427680969,43.18,-70.43,43.18
2006-04-23 15:00,-70.427680969,43.18,-70.43,43.18
2006-04-23 16:00,-70.427734375,43.18,-70.43,43.18
2006-04-23 17:00,-70.427780151,43.18,-70.43,43.18
2006-04-23 18:00,-70.427848816,43.18,-70.43,43.18
2006-04-23 19:00,-70.427848816,43.18,-70.43,43.18
2006-04-23 20:00,-70.427886963,43.18,-70.43,43.18
2006-04-23 21:00,-70.427864075,43.18,-70.43,43.18
2006-04-23 22:00,-70.427902222,43.18,-70.43,43.18
2006-04-23 23:00,-70.427932739,43.18,-70.43,43.18
2006-04-24 00:00,-70.427902222,43.18,-70.43,43.18
2006-04-24 01:00,-70.427902222,43.18,-70.43,43.18
2006-04-24 02:00,-70.427932739,43.18,-70.43,43.18
2006-04-24 03:00,-70.427848816,43.18,-70.43,43.18
2006-04-24 04:00,-70.427864075,43.18,-70.43,43.18
2006-04-24 05:00,-70.427932739,43.18,-70.43,43.18
2006-04-24 06:00,-70.427917480,43.18,-70.43,43.18
2006-04-24 07:00,-70.427917480,43.18,-70.43,43.18
2006-04-24 08:00,-70.427886963,43.18,-70.43,43.18
2006-04-24 09:00,-70.427902222,43.18,-70.43,43.18
2006-04-24 10:00,-70.427886963,43.18,-70.43,43.18
2006-04-24 11:00,-70.427886963,43.18,-70.43,43.18
2006-04-24 12:00,-70.427833557,43.18,-70.43,43.18
2006-04-24 13:00,-70.427803040,43.18,-70.43,43.18
2006-04-24 14:00,-70.427780151,43.18,-70.43,43.18
2006-04-24 15:00,-70.427780151,43.18,-70.43,43.18
2006-04-24 16:00,-70.427734375,43.18,-70.43,43.18
2006-04-24 17:00,-70.427764893,43.18,-70.43,43.18
2006-04-24 18:00,-70.427749634,43.18,-70.43,43.18
2006-04-24 19:00,-70.427764893,43.18,-70.43,43.18
2006-04-24 20:00,-70.427803040,43.18,-70.43,43.18
2006-04-24 21:00,-70.427818298,43.18,-70.43,43.18
2006-04-24 22:00,-70.427833557,43.18,-70.43,43.18
2006-04-24 23:00,-70.427848816,43.18,-70.43,43.18
2006-04-25 00:00,-70.427833557,43.18,-70.43,43.18
2006-04-25 01:00,-70.427780151,43.18,-70.43,43.18
2006-04-25 02:00,-70.427635193,43.18,-70.43,43.18
2006-04-25 03:00,-70.427635193,43.18,-70.43,43.18
2006-04-25 04:00,-70.427650452,43.18,-70.43,43.18
2006-04-25 05:00,-70.427619934,43.18,-70.43,43.18
2006-04-25 06:00,-70.427551270,43.18,-70.43,43.18
2006-04-25 07:00,-70.427513123,43.18,-70.43,43.18
2006-04-25 08:00,-70.427497864,43.18,-70.43,43.18
2006-04-25 09:00,-70.427551270,43.18,-70.43,43.18
2006-04-25 10:00,-70.427536011,43.18,-70.43,43.18
2006-04-25 11:00,-70.427581787,43.18,-70.43,43.18
2006-04-25 12:00,-70.427551270,43.18,-70.43,43.18
2006-04-25 13:00,-70.427597046,43.18,-70.43,43.18
2006-04-25 14:00,-70.427597046,43.18,-70.43,43.18
2006-04-25 15:00,-70.427597046,43.18,-70.43,43.18
2006-04-25 16:00,-70.427635193,43.18,-70.43,43.18
2006-04-25 17:00,-70.427581787,43.18,-70.43,43.18
2006-04-25 18:00,-70.427597046,43.18,-70.43,43.18
2006-04-25 19:00,-70.427581787,43.18,-70.43,43.18
2006-04-25 20:00,-70.427635193,43.18,-70.43,43.18
2006-04-25 21:00,-70.427566528,43.18,-70.43,43.18
2006-04-25 22:00,-70.427436829,43.18,-70.43,43.18
2006-04-25 23:00,-70.427284241,43.18,-70.43,43.18
2006-04-26 00:00,-70.427368164,43.18,-70.43,43.18
2006-04-26 01:00,-70.427436829,43.18,-70.43,43.18
2006-04-26 02:00,,43.18,-70.43,
2006-04-26 03:00,-70.427452087,43.18,-70.43,43.18
2006-04-26 04:00,-70.427513123,43.18,-70.43,43.18
2006-04-26 05:00,-70.427536011,43.18,-70.43,43.18
2006-04-26 06:00,-70.427513123,43.18,-70.43,43.18
2006-04-26 07:00,-70.427551270,43.18,-70.43,43.18
2006-04-26 08:00,-70.427650452,43.18,-70.43,43.18
2006-04-26 09:00,-70.427650452,43.18,-70.43,43.18
2006-04-26 10:00,-70.427635193,43.18,-70.43,43.18
2006-04-26 11:00,-70.427650452,43.18,-70.43,43.18
2006-04-26 12:00,-70.427581787,43.18,-70.43,43.18
2006-04-26 13:00,-70.427482605,43.18,-70.43,43.18
2006-04-26 14:00,-70.427452087,43.18,-70.43,43.18
2006-04-26 15:00,-70.427413940,43.18,-70.43,43.18
2006-04-26 16:00,-70.427398682,43.18,-70.43,43.18
2006-04-26 17:00,-70.427368164,43.18,-70.43,43.18
2006-04-26 18:00,-70.427413940,43.18,-70.43,43.18
2006-04-26 19:00,-70.427398682,43.18,-70.43,43.18
2006-04-26 20:00,-70.427482605,43.18,-70.43,43.18
2006-04-26 21:00,-70.427482605,43.18,-70.43,43.18
2006-04-26 22:00,-70.427513123,43.18,-70.43,43.18
2006-04-26 23:00,-70.427513123,43.18,-70.43,43.18
2006-04-27 00:00,-70.427482605,43.18,-70.43,43.18
2006-04-27 01:00,-70.427513123,43.18,-70.43,43.18
2006-04-27 02:00,,43.18,-70.43,
2006-04-27 03:00,-70.427284241,43.18,-70.43,43.18
2006-04-27 04:00,-70.427268982,43.18,-70.43,43.18
2006-04-27 05:00,-70.427200317,43.18,-70.43,43.18
2006-04-27 06:00,-70.427215576,43.18,-70.43,43.18
2006-04-27 07:00,-70.427230835,43.18,-70.43,43.18
2006-04-27 08:00,-70.427284241,43.18,-70.43,43.18
2006-04-27 09:00,-70.427368164,43.18,-70.43,43.18
2006-04-27 10:00,-70.427398682,43.18,-70.43,43.18
2006-04-27 11:00,-70.427497864,43.18,-70.43,43.18
2006-04-27 12:00,-70.427513123,43.18,-70.43,43.18
2006-04-27 13:00,-70.427619934,43.18,-70.43,43.18
2006-04-27 14:00,-70.427719116,43.18,-70.43,43.18
2006-04-27 15:00,-70.427734375,43.18,-70.43,43.18
2006-04-27 16:00,-70.427719116,43.18,-70.43,43.18
2006-04-27 17:00,-70.427696228,43.18,-70.43,43.18
2006-04-27 18:00,-70.427680969,43.18,-70.43,43.18
2006-04-27 19:00,-70.427696228,43.18,-70.43,43.18
2006-04-27 20:00,-70.427665710,43.18,-70.43,43.18
2006-04-27 21:00,-70.427619934,43.18,-70.43,43.18
2006-04-27 22:00,-70.427635193,43.18,-70.43,43.18
2006-04-27 23:00,-70.427566528,43.18,-70.43,43.18
2006-04-28 00:00,-70.427635193,43.18,-70.43,43.18
2006-04-28 01:00,-70.427650452,43.18,-70.43,43.18
2006-04-28 02:00,-70.427619934,43.18,-70.43,43.18
2006-04-28 03:00,-70.427619934,43.18,-70.43,43.18
2006-04-28 04:00,-70.427597046,43.18,-70.43,43.18
2006-04-28 05:00,-70.427619934,43.18,-70.43,43.18
2006-04-28 06:00,-70.427597046,43.18,-70.43,43.18
2006-04-28 07:00,-70.427597046,43.18,-70.43,43.18
2006-04-28 08:00,-70.427635193,43.18,-70.43,43.18
2006-04-28 09:00,-70.427680969,43.18,-70.43,43.18
2006-04-28 10:00,-70.427719116,43.18,-70.43,43.18
2006-04-28 11:00,-70.427764893,43.18,-70.43,43.18
2006-04-28 12:00,-70.427833557,43.18,-70.43,43.18
2006-04-28 13:00,-70.427886963,43.18,-70.43,43.18
2006-04-28 14:00,-70.427848816,43.18,-70.43,43.18
2006-04-28 15:00,-70.427818298,43.18,-70.43,43.18
2006-04-28 16:00,-70.427764893,43.18,-70.43,43.18
2006-04-28 17:00,-70.427780151,43.18,-70.43,43.18
2006-04-28 18:00,-70.427764893,43.18,-70.43,43.18
2006-04-28 19:00,-70.427749634,43.18,-70.43,43.18
2006-04-28 20:00,-70.427719116,43.18,-70.43,43.18
2006-04-28 21:00,-70.427665710,43.18,-70.43,43.18
2006-04-28 22:00,-70.427719116,43.18,-70.43,43.18
2006-04-28 23:00,-70.427696228,43.18,-70.43,43.18
2006-04-29 00:00,-70.427734375,43.18,-70.43,43.18
2006-04-29 01:00,-70.427734375,43.18,-70.43,43.18
2006-04-29 02:00,-70.427696228,43.18,-70.43,43.18
2006-04-29 03:00,-70.427680969,43.18,-70.43,43.18
2006-04-29 04:00,-70.427696228,43.18,-70.43,43.18
2006-04-29 05:00,-70.427734375,43.18,-70.43,43.18
2006-04-29 06:00,-70.427719116,43.18,-70.43,43.18
2006-04-29 07:00,-70.427719116,43.18,-70.43,43.18
2006-04-29 08:00,-70.427665710,43.18,-70.43,43.18
2006-04-29 09:00,-70.427665710,43.18,-70.43,43.18
2006-04-29 10:00,-70.427696228,43.18,-70.43,43.18
2006-04-29 11:00,-70.427749634,43.18,-70.43,43.18
2006-04-29 12:00,-70.427749634,43.18,-70.43,43.18
2006-04-29 13:00,-70.427803040,43.18,-70.43,43.18
2006-04-29 14:00,-70.427833557,43.18,-70.43,43.18
2006-04-29 15:00,-70.427719116,43.18,-70.43,43.18
2006-04-29 16:00,-70.427734375,43.18,-70.43,43.18
2006-04-29 17:00,-70.427764893,43.18,-70.43,43.18
2006-04-29 18:00,-70.427719116,43.18,-70.43,43.18
2006-04-29 19:00,-70.427734375,43.18,-70.43,43.18
2006-04-29 20:00,-70.427734375,43.18,-70.43,43.18
2006-04-29 21:00,-70.427665710,43.18,-70.43,43.18
2006-04-29 22:00,-70.427680969,43.18,-70.43,43.18
2006-04-29 23:00,-70.427696228,43.18,-70.43,43.18
2006-04-30 00:00,-70.427696228,43.18,-70.43,43.18
2006-04-30 01:00,-70.427696228,43.18,-70.43,43.18